Sauk Centre, MN

9:40 AM CDT on August 25, 2019 (GMT -0500)
Sauk Centre

Weather History for KD39 - July, 2019

Change the Weather History Date:

Sunday, July 21, 2019

  Actual Average (WUND) Record (WUND)
Temperature  
Mean Temperature 66 °F -  
Max Temperature 76 °F - - (-1)
Min Temperature 55 °F - - (-1)
Growing Degree Days 16 (Base 50)    
Moisture  
Dew Point 57 °F    
Average Humidity 75    
Maximum Humidity 99    
Minimum Humidity 47    
Precipitation  
Precipitation 0.00 in - - ()
Sea Level Pressure  
Sea Level Pressure 30.11 in    
Wind  
Wind Speed 3 mph (NNW)    
Max Wind Speed 17 mph    
Max Gust Speed 24 mph    
Visibility 10 miles    
Events      
Averages and records for this station are not official NWS values.
T = Trace of Precipitation, MM = Missing Value Source: NWS Daily Summary

Daily Weather History Graph

Daily Weather History Graph

Search for Another Location

Airport or City:

Astronomy

Jul. 21, 2019 Rise Set
Actual Time 5:50 AM CDT 9:01 PM CDT
Civil Twilight 5:14 AM CDT 9:36 PM CDT
Nautical Twilight 4:28 AM CDT 10:23 PM CDT
Astronomical Twilight 3:30 AM CDT 11:19 PM CDT
Moon 11:43 PM CDT (7/21) 10:23 AM CDT (7/21)
Length of Visible Light 16h 22m
Length of Day
15h 10m
Waning Gibbous, 80% of the Moon is Illuminated
Jul 21
Waning Gibbous
Jul 24
Last Quarter
Jul 31
New
Aug 7
First Quarter
Aug 15
Full

Hourly Weather History & Observations

Time (CDT) Temp. Dew Point Humidity Pressure Visibility Wind Dir Wind Speed Gust Speed Precip Events Conditions
12:15 AM 60.8 °F 59.9 °F 97% 30.03 in 10.0 mi Calm Calm - N/A   Clear
12:16 AM 60.6 °F 59.7 °F 97% 30.03 in 10.0 mi Calm Calm - N/A   Clear
12:38 AM 59.9 °F 59.0 °F 97% 30.04 in 10.0 mi Calm Calm - N/A   Clear
12:56 AM 59.5 °F 58.8 °F 97% 30.04 in 10.0 mi Calm Calm - N/A   Clear
1:16 AM 59.5 °F 59.0 °F 98% 30.04 in 10.0 mi Calm Calm - N/A   Clear
1:35 AM 59.0 °F 58.5 °F 98% 30.05 in 10.0 mi Calm Calm - N/A   Clear
1:36 AM 59.0 °F 58.3 °F 97% 30.04 in 10.0 mi Calm Calm - N/A   Clear
1:55 AM 58.1 °F 57.6 °F 98% 30.04 in 10.0 mi Calm Calm - N/A   Clear
2:18 AM 58.5 °F 58.1 °F 99% 30.04 in 10.0 mi Calm Calm - N/A   Clear
2:36 AM 58.5 °F 57.9 °F 98% 30.04 in 10.0 mi Calm Calm - N/A   Clear
2:55 AM 58.1 °F 57.4 °F 97% 30.04 in 10.0 mi Calm Calm - N/A   Clear
2:56 AM 58.1 °F 57.4 °F 97% 30.04 in 10.0 mi Calm Calm - N/A   Clear
3:17 AM 58.3 °F 57.6 °F 97% 30.05 in 10.0 mi WNW 3.5 mph - N/A   Clear
3:35 AM 57.7 °F 57.2 °F 98% 30.04 in 10.0 mi Calm Calm - N/A   Clear
3:36 AM 57.7 °F 57.2 °F 98% 30.04 in 10.0 mi Calm Calm - N/A   Clear
3:55 AM 57.4 °F 56.7 °F 97% 30.05 in 10.0 mi Calm Calm - N/A   Clear
3:56 AM 57.4 °F 56.7 °F 97% 30.05 in 10.0 mi Calm Calm - N/A   Clear
4:15 AM 57.0 °F 56.5 °F 98% 30.05 in 10.0 mi Calm Calm - N/A   Clear
4:20 AM 56.5 °F 55.9 °F 98% 30.05 in 10.0 mi Calm Calm - N/A   Clear
4:37 AM 57.7 °F 57.0 °F 97% 30.06 in 10.0 mi Calm Calm - N/A   Clear
4:56 AM 56.7 °F 56.3 °F 99% 30.06 in 10.0 mi Calm Calm - N/A   Clear
5:15 AM 56.1 °F 55.6 °F 98% 30.06 in 10.0 mi Calm Calm - N/A   Scattered Clouds
5:16 AM 55.9 °F 55.4 °F 98% 30.06 in 10.0 mi Calm Calm - N/A   Scattered Clouds
5:35 AM 55.2 °F 54.9 °F 99% 30.06 in 10.0 mi Calm Calm - N/A   Scattered Clouds
5:58 AM 56.3 °F 55.8 °F 98% 30.06 in 10.0 mi Calm Calm - N/A   Clear
6:17 AM 56.7 °F 56.3 °F 99% 30.07 in 10.0 mi Calm Calm - N/A   Clear
6:36 AM 56.3 °F 55.6 °F 97% 30.07 in 10.0 mi Calm Calm - N/A   Clear
6:55 AM 57.4 °F 56.8 °F 98% 30.07 in 10.0 mi Calm Calm - N/A   Clear
6:56 AM 57.6 °F 56.8 °F 97% 30.07 in 10.0 mi North 3.5 mph - N/A   Clear
7:15 AM 59.9 °F 58.5 °F 95% 30.09 in 10.0 mi Calm Calm - N/A   Clear
7:37 AM 62.1 °F 59.4 °F 91% 30.10 in 10.0 mi Calm Calm - N/A   Clear
7:56 AM 62.6 °F 59.5 °F 90% 30.11 in 10.0 mi Calm Calm - N/A   Clear
8:16 AM 64.0 °F 60.4 °F 88% 30.11 in 10.0 mi Calm Calm - N/A   Clear
8:35 AM 65.7 °F 61.3 °F 86% 30.11 in 10.0 mi Calm Calm - N/A   Clear
8:36 AM 65.7 °F 61.3 °F 86% 30.10 in 10.0 mi Calm Calm - N/A   Clear
8:55 AM 66.9 °F 61.9 °F 84% 30.11 in 10.0 mi WSW 3.5 mph - N/A   Clear
8:59 AM 66.7 °F 61.5 °F 83% 30.11 in 10.0 mi Calm Calm - N/A   Clear
9:17 AM 67.6 °F 61.7 °F 81% 30.11 in 10.0 mi West 3.5 mph - N/A   Clear
9:35 AM 69.1 °F 61.5 °F 77% 30.12 in 10.0 mi WSW 3.5 mph - N/A   Clear
9:55 AM 69.8 °F 61.2 °F 74% 30.12 in 10.0 mi Calm Calm - N/A   Clear
9:56 AM 69.8 °F 61.3 °F 74% 30.12 in 10.0 mi Calm Calm - N/A   Clear
10:15 AM 71.6 °F 60.4 °F 68% 30.12 in 10.0 mi Calm Calm - N/A   Clear
10:16 AM 71.6 °F 60.4 °F 68% 30.12 in 10.0 mi Calm Calm - N/A   Clear
10:38 AM 72.9 °F 58.6 °F 61% 30.13 in 10.0 mi Calm Calm - N/A   Clear
10:56 AM 73.2 °F 56.3 °F 55% 30.13 in 10.0 mi NW 9.2 mph - N/A   Clear
11:15 AM 74.1 °F 55.9 °F 53% 30.14 in 10.0 mi NW 8.1 mph - N/A   Clear
11:35 AM 74.7 °F 55.0 °F 50% 30.14 in 10.0 mi North 6.9 mph - N/A   Clear
11:36 AM 74.5 °F 55.0 °F 51% 30.14 in 10.0 mi North 8.1 mph - N/A   Clear
11:55 AM 74.7 °F 55.6 °F 51% 30.14 in 10.0 mi NW 9.2 mph - N/A   Clear
11:56 AM 74.7 °F 55.6 °F 51% 30.14 in 10.0 mi NW 6.9 mph - N/A   Clear
12:19 PM 75.2 °F 53.8 °F 47% 30.14 in 10.0 mi WNW 9.2 mph - N/A   Clear
12:37 PM 75.7 °F 55.0 °F 49% 30.14 in 10.0 mi NW 6.9 mph - N/A   Clear
12:56 PM 76.3 °F 56.3 °F 50% 30.14 in 10.0 mi NNW 11.5 mph - N/A   Scattered Clouds
1:15 PM 75.9 °F 55.6 °F 49% 30.13 in 10.0 mi NNW 10.4 mph 20.7 mph N/A   Scattered Clouds
1:16 PM 75.7 °F 55.4 °F 49% 30.13 in 10.0 mi NNW 10.4 mph 20.7 mph N/A   Scattered Clouds
1:35 PM 75.4 °F 55.6 °F 50% 30.14 in 10.0 mi NW 11.5 mph - N/A   Clear
1:58 PM 75.9 °F 56.7 °F 51% 30.14 in 10.0 mi NNW 13.8 mph 18.4 mph N/A   Scattered Clouds
2:17 PM 74.8 °F 55.4 °F 51% 30.13 in 10.0 mi NNW 10.4 mph - N/A   Scattered Clouds
2:36 PM 75.6 °F 54.9 °F 48% 30.13 in 10.0 mi NW 13.8 mph 20.7 mph N/A   Clear
2:55 PM 74.5 °F 55.0 °F 51% 30.12 in 10.0 mi NNW 13.8 mph - N/A   Scattered Clouds
2:56 PM 74.7 °F 55.0 °F 50% 30.12 in 10.0 mi NNW 13.8 mph - N/A   Scattered Clouds
3:18 PM 74.5 °F 55.6 °F 52% 30.13 in 10.0 mi NW 12.7 mph 17.3 mph N/A   Scattered Clouds
3:37 PM 75.9 °F 55.4 °F 49% 30.12 in 10.0 mi NW 15.0 mph 18.4 mph N/A   Clear
3:56 PM 76.3 °F 56.8 °F 51% 30.12 in 10.0 mi North 11.5 mph 18.4 mph N/A   Scattered Clouds
4:15 PM 74.5 °F 56.1 °F 53% 30.12 in 10.0 mi NNW 13.8 mph 19.6 mph N/A   Mostly Cloudy
4:16 PM 74.5 °F 56.1 °F 53% 30.12 in 10.0 mi NNW 17.3 mph 24.2 mph N/A   Mostly Cloudy
4:35 PM 73.2 °F 56.8 °F 56% 30.12 in 10.0 mi North 12.7 mph - N/A   Mostly Cloudy
4:57 PM 74.3 °F 55.8 °F 52% 30.12 in 10.0 mi NNW 9.2 mph 18.4 mph N/A   Clear
5:16 PM 73.9 °F 54.5 °F 51% 30.13 in 10.0 mi North 11.5 mph - N/A   Scattered Clouds
5:35 PM 73.8 °F 55.6 °F 53% 30.13 in 10.0 mi North 10.4 mph - N/A   Clear
5:36 PM 73.8 °F 55.8 °F 53% 30.13 in 10.0 mi North 9.2 mph - N/A   Clear
5:55 PM 73.6 °F 56.8 °F 56% 30.14 in 10.0 mi North 11.5 mph - N/A   Mostly Cloudy
6:15 PM 72.9 °F 57.2 °F 58% 30.14 in 10.0 mi NNE 6.9 mph - N/A   Mostly Cloudy
6:19 PM 73.0 °F 56.8 °F 57% 30.14 in 10.0 mi NNE 5.8 mph - N/A   Mostly Cloudy
6:38 PM 71.6 °F 55.6 °F 57% 30.14 in 10.0 mi North 8.1 mph - N/A   Mostly Cloudy
6:55 PM 71.2 °F 56.5 °F 60% 30.16 in 10.0 mi North 8.1 mph - N/A   Mostly Cloudy
7:16 PM 71.1 °F 56.7 °F 60% 30.16 in 10.0 mi North 6.9 mph - N/A   Scattered Clouds
7:35 PM 70.0 °F 56.3 °F 62% 30.16 in 10.0 mi North 5.8 mph - N/A   Clear
7:36 PM 69.8 °F 56.3 °F 62% 30.16 in 10.0 mi North 5.8 mph - N/A   Clear
7:55 PM 69.8 °F 56.7 °F 63% 30.16 in 10.0 mi North 3.5 mph - N/A   Scattered Clouds
8:17 PM 68.9 °F 56.8 °F 65% 30.16 in 10.0 mi North 3.5 mph - N/A   Mostly Cloudy
8:36 PM 69.3 °F 57.7 °F 67% 30.16 in 10.0 mi North 3.5 mph - N/A   Mostly Cloudy
8:56 PM 67.8 °F 58.1 °F 71% 30.17 in 10.0 mi North 3.5 mph - N/A   Mostly Cloudy
9:15 PM 67.3 °F 57.2 °F 70% 30.17 in 10.0 mi NNW 5.8 mph - N/A   Scattered Clouds
9:16 PM 67.3 °F 57.4 °F 70% 30.17 in 10.0 mi NNW 5.8 mph - N/A   Scattered Clouds
9:35 PM 64.9 °F 55.6 °F 72% 30.18 in 10.0 mi NNE 6.9 mph - N/A   Scattered Clouds
9:36 PM 64.8 °F 55.6 °F 72% 30.18 in 10.0 mi NNE 6.9 mph - N/A   Scattered Clouds
9:58 PM 63.5 °F 55.0 °F 74% 30.19 in 10.0 mi Calm Calm - N/A   Scattered Clouds
10:18 PM 61.9 °F 55.2 °F 79% 30.19 in 10.0 mi Calm Calm - N/A   Clear
10:36 PM 61.5 °F 55.4 °F 80% 30.19 in 10.0 mi Calm Calm - N/A   Clear
10:56 PM 61.2 °F 55.6 °F 82% 30.19 in 10.0 mi Calm Calm - N/A   Clear
11:15 PM 59.7 °F 55.9 °F 87% 30.20 in 10.0 mi West 3.5 mph - N/A   Scattered Clouds
11:35 PM 58.8 °F 55.6 °F 89% 30.20 in 10.0 mi Calm Calm - N/A   Scattered Clouds
11:39 PM 58.1 °F 55.0 °F 90% 30.20 in 10.0 mi Calm Calm - N/A   Scattered Clouds
11:58 PM 58.3 °F 55.6 °F 91% 30.20 in 10.0 mi Calm Calm - N/A   Clear